TimeEDT,TemperatureF,Dew PointF,Humidity,Sea Level PressureIn,VisibilityMPH,Wind Direction,Wind SpeedMPH,Gust SpeedMPH,PrecipitationIn,Events,Conditions,WindDirDegrees,DateUTC
12:54 AM,55.9,51.1,84,30.19,10.0,Calm,Calm,-,N/A,,Overcast,0,2013-10-16 04:54:00
1:54 AM,54.0,52.0,93,30.19,10.0,Calm,Calm,-,N/A,,Overcast,0,2013-10-16 05:54:00
2:54 AM,54.0,52.0,93,30.17,10.0,Calm,Calm,-,N/A,,Overcast,0,2013-10-16 06:54:00
3:54 AM,55.0,52.0,89,30.17,10.0,Calm,Calm,-,N/A,,Overcast,0,2013-10-16 07:54:00
4:23 AM,55.4,51.8,88,30.17,10.0,Calm,Calm,-,N/A,,Overcast,0,2013-10-16 08:23:00
4:54 AM,54.0,52.0,93,30.18,10.0,Calm,Calm,-,N/A,,Overcast,0,2013-10-16 08:54:00
5:03 AM,53.6,51.8,94,30.17,10.0,ESE,3.5,-,N/A,,Overcast,120,2013-10-16 09:03:00
5:54 AM,54.0,51.1,90,30.17,10.0,ESE,3.5,-,N/A,,Overcast,120,2013-10-16 09:54:00
6:54 AM,54.0,51.1,90,30.17,10.0,Calm,Calm,-,N/A,,Overcast,0,2013-10-16 10:54:00
7:02 AM,53.6,51.8,94,30.15,10.0,Calm,Calm,-,N/A,,Overcast,0,2013-10-16 11:02:00
7:54 AM,54.0,51.1,90,30.15,10.0,Calm,Calm,-,N/A,,Overcast,0,2013-10-16 11:54:00
8:13 AM,53.6,51.8,94,30.15,10.0,Calm,Calm,-,N/A,,Overcast,0,2013-10-16 12:13:00
8:23 AM,53.6,51.8,94,30.14,10.0,Calm,Calm,-,N/A,,Overcast,0,2013-10-16 12:23:00
8:33 AM,55.4,51.8,88,30.14,10.0,Calm,Calm,-,N/A,,Overcast,0,2013-10-16 12:33:00
8:54 AM,55.0,51.1,86,30.14,10.0,ESE,5.8,-,N/A,,Overcast,110,2013-10-16 12:54:00
9:54 AM,55.9,50.0,80,30.14,10.0,ESE,5.8,-,N/A,,Overcast,120,2013-10-16 13:54:00
10:54 AM,55.9,51.1,84,30.12,10.0,South,4.6,-,N/A,,Overcast,170,2013-10-16 14:54:00
11:54 AM,55.0,51.1,86,30.11,10.0,SSE,5.8,-,N/A,,Overcast,160,2013-10-16 15:54:00
12:54 PM,55.9,51.1,84,30.08,10.0,Calm,Calm,-,N/A,,Overcast,0,2013-10-16 16:54:00
1:27 PM,57.2,51.8,82,30.06,10.0,Calm,Calm,-,N/A,,Mostly Cloudy,0,2013-10-16 17:27:00
1:40 PM,57.2,50.0,77,30.05,10.0,Calm,Calm,-,N/A,,Scattered Clouds,0,2013-10-16 17:40:00
1:54 PM,57.9,50.0,75,30.05,10.0,Calm,Calm,-,N/A,,Mostly Cloudy,0,2013-10-16 17:54:00
2:04 PM,57.2,48.2,72,30.04,10.0,Calm,Calm,-,N/A,,Scattered Clouds,0,2013-10-16 18:04:00
2:54 PM,60.1,48.9,67,30.03,10.0,Calm,Calm,-,N/A,,Clear,0,2013-10-16 18:54:00
3:54 PM,61.0,48.0,62,30.01,10.0,NE,5.8,-,N/A,,Clear,40,2013-10-16 19:54:00
4:54 PM,59.0,48.9,69,30.00,10.0,Calm,Calm,-,N/A,,Clear,0,2013-10-16 20:54:00
5:54 PM,55.9,51.1,84,29.98,10.0,Calm,Calm,-,N/A,,Clear,0,2013-10-16 21:54:00
6:54 PM,50.0,48.0,93,29.98,10.0,Calm,Calm,-,N/A,,Clear,0,2013-10-16 22:54:00
7:54 PM,50.0,48.0,93,29.96,10.0,Calm,Calm,-,N/A,,Partly Cloudy,0,2013-10-16 23:54:00
8:54 PM,50.0,46.9,89,29.96,10.0,Calm,Calm,-,N/A,,Clear,0,2013-10-17 00:54:00
9:54 PM,46.9,45.0,93,29.94,9.0,Calm,Calm,-,N/A,,Clear,0,2013-10-17 01:54:00
10:54 PM,45.0,43.0,93,29.93,5.0,Calm,Calm,-,N/A,,Clear,0,2013-10-17 02:54:00
11:36 PM,44.6,42.8,93,29.90,5.0,Calm,Calm,-,N/A,,Partly Cloudy,0,2013-10-17 03:36:00
11:54 PM,43.0,42.1,97,29.90,6.0,North,3.5,-,N/A,,Partly Cloudy,350,2013-10-17 03:54:00